Orbital Elements at Epoch 2459200.5 (2020-Dec-17.0) TDB
Reference: JPL 29 (heliocentric ecliptic J2000)
Element | Value | Uncertainty (1-sigma) | Units |
e | .1614349812087151 | 2.5972e-08 | |
a | 2.314967283178632 | 6.4414e-09 | au |
q | 1.9412505833199 | 6.0158e-08 | au |
i | 5.587825321581632 | 5.477e-06 | deg |
node | 352.9245804270108 | 3.0852e-05 | deg |
peri | 78.58154091741527 | 3.5996e-05 | deg |
M | 56.23891183219077 | 1.8697e-05 | deg |
tp | 2458999.521258936228 (2020-May-30.02125894) | 6.6593e-05 | TDB |
period | 1286.517544984644 3.52 | 5.3696e-06 1.47e-08 | d yr |
n | .279825177202925 | 1.1679e-09 | deg/d |
Q | 2.688683983037365 | 7.4812e-09 | au |
|
| | Orbit Determination Parameters
Additional Information
|